Flag for USA

Past Weather in 29°58'29.9"N, 81°27'35.3"W, USA — Yesterday and Last 2 Weeks

Currently: 69 °F. Clear. (Weather station: St. Augustine Airport, USA). See more current weather

Past Weather in 29°58'29.9"N, 81°27'35.3"W — Graph

°F

29°58'29.9"N, 81°27'35.3"W Temperature Yesterday

Maximum temperature yesterday: 86 °F (at 1:56 pm)
Minimum temperature yesterday: 69 °F (at 1:56 am)
Average temperature yesterday: 77 °F

High & Low Weather Summary for the Past Weeks

 TemperatureHumidityPressure
High87 °F (Oct 5, 12:56 pm)100% (Oct 9, 5:22 am)30.13 "Hg (Oct 9, 5:22 am)
Low58 °F (Oct 17, 7:56 am)53% (Oct 17, 2:56 pm)29.88 "Hg (Oct 16, 4:56 pm)
Average77 °F81%30.00 "Hg
* Reported Oct 2 5:56 pm — Oct 17 5:56 pm, 29°58'29.9"N, 81°27'35.3"W. Weather by CustomWeather, © 2021

Note: Actual official high and low records may vary slightly from our data, if they occured in-between our weather recording intervals... More about our weather records

29°58'29.9"N, 81°27'35.3"W Weather History for the Previous 24 Hours

Scroll right to see more
 ConditionsComfort  
Time TempWeatherWind HumidityBarometerVisibility
5:56 pm
Sun, Oct 17
71 °FSunny.9 mph57%30.06 "Hg10 mi
4:56 pm73 °FPassing clouds.10 mph55%30.05 "Hg10 mi
3:56 pm73 °FPassing clouds.16 mph57%30.04 "Hg10 mi
2:56 pm74 °FPartly sunny.15 mph53%30.05 "Hg10 mi
1:56 pm75 °FPassing clouds.13 mph55%30.06 "Hg10 mi
12:56 pm75 °FPassing clouds.15 mph55%30.07 "Hg10 mi
11:56 am75 °FPassing clouds.16 mph55%30.07 "Hg10 mi
10:56 am73 °FPassing clouds.12 mph66%30.07 "Hg10 mi
9:56 am68 °FSunny.12 mph70%30.06 "Hg10 mi
8:56 am62 °FSunny.12 mph73%30.05 "Hg10 mi
7:56 am58 °FSunny.9 mph75%30.03 "Hg10 mi
6:56 am59 °FClear.8 mph72%30.02 "Hg10 mi
5:56 am61 °FClear.10 mph65%30.01 "Hg10 mi
4:56 am62 °FClear.12 mph62%30.00 "Hg10 mi
3:56 am64 °FClear.12 mph61%29.99 "Hg10 mi
2:56 am67 °FClear.12 mph63%29.99 "Hg10 mi
1:56 am69 °FClear.13 mph63%29.99 "Hg10 mi
12:56 am71 °FPartly cloudy.13 mph76%29.99 "Hg10 mi
11:56 pm
Sat, Oct 16
74 °FPassing clouds.13 mph91%29.98 "Hg10 mi
10:56 pm75 °FOvercast.5 mph94%29.96 "Hg10 mi
9:56 pm75 °FLight rain. Overcast.7 mph94%29.94 "Hg10 mi
8:56 pm78 °FPassing clouds.6 mph76%29.91 "Hg10 mi
7:56 pm80 °FPartly cloudy.7 mph71%29.90 "Hg10 mi
7:21 pm81 °FPartly cloudy.7 mph74%29.90 "Hg10 mi
Weather by CustomWeather, © 2021

See weather overview